GW1149 Weather Reports


time (UTC)temp
C
wind
direction
speed
KPH
gust
KPH
rain 1hr
cm
rain 24hr
cm
rain mn
cm
humidity
%
barometer
mb
20260506001548 18 295 1.6 8.0 0.00 0.00 0.00 71 1015.7
20260506000049 17 310 0.0 11.3 0.00 0.00 0.00 73 1015.8
20260505234603 17 273 1.6 9.7 0.00 0.00 0.00 76 1015.9
20260505233053 17 313 1.6 4.8 0.00 0.00 0.00 74 1016.1
20260505231553 17 248 1.6 6.4 0.00 0.00 0.00 76 1016.3
20260505230048 16 260 1.6 6.4 0.00 0.00 0.00 76 1016.3
20260505224548 16 220 0.0 6.4 0.00 0.00 0.00 77 1016.4
20260505223046 16 302 1.6 6.4 0.00 0.00 0.00 75 1016.4
20260505221550 16 293 1.6 6.4 0.00 0.00 0.00 76 1016.5
20260505220056 16 307 0.0 4.8 0.00 0.00 0.00 75 1016.6
20260505214604 16 0 0.0 8.0 0.00 0.00 0.00 77 1016.7
20260505213058 16 310 1.6 9.7 0.00 0.00 0.00 77 1016.7
20260505211550 16 257 3.2 8.0 0.00 0.00 0.00 76 1016.7
20260505210055 16 257 1.6 8.0 0.00 0.00 0.00 77 1016.7
20260505204556 16 300 1.6 6.4 0.00 0.00 0.00 76 1016.7
20260505203050 16 228 1.6 6.4 0.00 0.00 0.00 77 1016.9
20260505201553 16 251 3.2 6.4 0.00 0.00 0.00 75 1016.8
20260505200100 16 300 0.0 3.2 0.00 0.00 0.00 76 1016.8
20260505194554 16 268 0.0 3.2 0.00 0.00 0.00 76 1017.0
20260505193050 15 1 0.0 3.2 0.00 0.00 0.00 77 1017.0
20260505191546 15 260 0.0 3.2 0.00 0.00 0.00 76 1017.0
20260505190044 15 280 1.6 4.8 0.00 0.00 0.00 76 1017.0
20260505184551 15 225 0.0 6.4 0.00 0.00 0.00 78 1016.8
20260505183047 15 297 1.6 6.4 0.00 0.00 0.00 81 1016.9
20260505181544 14 266 0.0 4.8 0.00 0.00 0.00 81 1016.9
20260505180104 13 231 1.6 4.8 0.00 0.00 0.00 81 1016.8
20260505174602 13 278 1.6 4.8 0.00 0.00 0.00 84 1016.9
20260505173051 13 0 0.0 1.6 0.00 0.00 0.00 84 1016.8
20260505171547 13 215 1.6 3.2 0.00 0.00 0.00 84 1016.7
20260505170048 13 0 0.0 3.2 0.00 0.00 0.00 84 1016.7
20260505164550 12 257 0.0 4.8 0.00 0.00 0.00 86 1016.8
20260505163054 12 0 0.0 3.2 0.00 0.00 0.00 88 1016.8
20260505161549 12 0 0.0 4.8 0.00 0.00 0.00 88 1016.9
20260505153046 11 0 0.0 3.2 0.00 0.00 0.00 89 1016.8
20260505151552 11 0 0.0 4.8 0.00 0.00 0.00 90 1016.7
20260505124550 11 0 0.0 1.6 0.00 0.00 0.00 93 1015.9
20260505123102 11 0 0.0 1.6 0.00 0.00 0.00 93 1015.7
20260505121543 11 0 0.0 1.6 0.00 0.00 0.00 93 1015.6
20260505120050 11 0 0.0 1.6 0.00 0.00 0.00 92 1015.5
20260505114547 11 0 0.0 1.6 0.00 0.00 0.00 92 1015.5
20260505113053 11 284 0.0 1.6 0.00 0.00 0.00 91 1015.6
20260505111547 11 0 0.0 1.6 0.00 0.00 0.00 90 1015.6
20260505101545 11 0 0.0 1.6 0.00 0.00 0.00 90 1015.4
20260505100051 11 206 0.0 4.8 0.00 0.00 0.00 89 1015.3
20260505094547 11 0 0.0 1.6 0.00 0.00 0.00 89 1015.3
20260505093047 11 241 0.0 3.2 0.00 0.00 0.00 88 1015.2
20260505091608 11 252 0.0 3.2 0.00 0.00 0.00 88 1015.2
20260505090050 12 0 0.0 3.2 0.00 0.00 0.00 88 1015.2
20260505084548 12 0 0.0 4.8 0.00 0.00 0.00 88 1015.1
20260505083047 12 242 0.0 3.2 0.00 0.00 0.00 87 1015.1
20260505081557 12 0 0.0 4.8 0.00 0.00 0.00 87 1015.0
20260505080051 12 0 0.0 4.8 0.00 0.00 0.00 87 1015.0
20260505074542 12 0 0.0 4.8 0.00 0.00 0.00 87 1014.9
20260505073049 12 0 1.6 6.4 0.00 0.00 0.00 87 1014.9
20260505071555 12 300 0.0 1.6 0.00 0.00 0.00 86 1014.8
20260505070050 12 250 0.0 3.2 0.00 0.00 0.00 86 1014.9
20260505064547 12 0 0.0 4.8 0.00 0.00 0.00 86 1014.9
20260505063103 12 252 1.6 4.8 0.00 0.00 0.00 86 1014.8
20260505061615 12 240 0.0 4.8 0.00 0.00 0.00 86 1014.7
20260505060101 12 283 1.6 4.8 0.00 0.00 0.00 85 1014.6
20260505054552 12 0 0.0 4.8 0.00 0.00 0.00 86 1014.7
20260505053047 12 253 0.0 4.8 0.00 0.00 0.00 86 1014.7
20260505051609 13 237 1.6 6.4 0.00 0.00 0.00 85 1014.6
20260505041550 13 260 0.0 6.4 0.00 0.00 0.00 84 1013.9
20260505040053 13 240 1.6 3.2 0.00 0.00 0.00 84 1013.6
20260505034549 14 257 1.6 6.4 0.00 0.00 0.00 82 1013.3
20260505033046 15 245 3.2 9.7 0.00 0.00 0.00 81 1012.9
20260505031555 15 240 1.6 8.0 0.00 0.00 0.00 80 1012.7
20260505030100 16 276 1.6 6.4 0.00 0.00 0.00 78 1012.4
20260505024551 17 0 0.0 4.8 0.00 0.00 0.00 76 1012.2
20260505023046 18 292 0.0 4.8 0.00 0.00 0.00 74 1012.0
20260505021547 18 309 0.0 3.2 0.00 0.00 0.00 73 1012.0
20260505014551 21 0 0.0 4.8 0.00 0.00 0.00 67 1011.9
20260505013047 21 297 0.0 6.4 0.00 0.00 0.00 66 1012.0
20260505011548 21 332 1.6 8.0 0.00 0.00 0.00 66 1012.1
20260505010111 21 273 1.6 11.3 0.00 0.00 0.00 65 1012.2
20260505004552 21 250 3.2 6.4 0.00 0.00 0.00 65 1012.1
20260505003056 22 290 0.0 4.8 0.00 0.00 0.00 62 1012.2